Weather History for Casa Grande, AZ

Change the Weather History Date:

Sunday, August 12, 2012

  Actual Average Record
Temperature  
Mean Temperature 96 °F -  
Max Temperature 111 °F 99 °F 111 °F (2007)
Min Temperature 80 °F 75 °F 69 °F (1999)
Cooling Degree Days 30    
Growing Degree Days 46 (Base 50)    
Moisture  
Dew Point 54 °F    
Average Humidity 25    
Maximum Humidity 48    
Minimum Humidity 13    
Precipitation  
Precipitation 0.00 in - - ()
Sea Level Pressure  
Sea Level Pressure 29.79 in    
Wind  
Wind Speed 4 mph (ENE)    
Max Wind Speed 10 mph    
Max Gust Speed 17 mph    
Visibility 10 miles    
Events      
Averages and records for this station are not official NWS values.
T = Trace of Precipitation, MM = Missing Value Source: NWS Daily Summary

Daily Weather History Graph

Daily Weather History Graph

Search for Another Location

Airport:

Trip Planner

Search our weather history database for the weather conditions in past years. The results will help you decide how hot, cold, wet, or windy it might be!

Date:

Astronomy

Aug. 12, 2012 Rise Set
Actual Time 5:48 AM MST 7:14 PM MST
Civil Twilight 5:22 AM MST 7:41 PM MST
Nautical Twilight 4:50 AM MST 8:12 PM MST
Astronomical Twilight 4:18 AM MST 8:45 PM MST
Moon 1:10 AM MST (8/12) 3:36 PM MST (8/12)
Length of Visible Light 14h 18m
Length of Day
13h 26m
Waning Crescent, 23% of the Moon is Illuminated
Aug 12
Waning Crescent
Aug 17
New
Aug 24
First Quarter
Aug 31
Full
Sep 8
Last Quarter

Hourly Weather History & Observations

Time (MST) Temp. Heat Index Dew Point Humidity Pressure Visibility Wind Dir Wind Speed Gust Speed Precip Events Conditions
12:15 AM 87.8 °F 86.1 °F 55.4 °F 33% 29.81 in 10.0 mi East 3.5 mph - N/A   Clear
12:35 AM 87.8 °F 86.1 °F 55.4 °F 33% 29.80 in 10.0 mi NE 4.6 mph - N/A   Clear
12:55 AM 89.6 °F 87.7 °F 55.4 °F 31% 29.80 in 10.0 mi East 3.5 mph - N/A   Clear
1:15 AM 89.6 °F 87.7 °F 55.4 °F 31% 29.80 in 10.0 mi Calm Calm - N/A   Clear
1:35 AM 89.6 °F 87.7 °F 55.4 °F 31% 29.81 in 10.0 mi Calm Calm - N/A   Clear
1:55 AM 87.8 °F 86.1 °F 55.4 °F 33% 29.81 in 10.0 mi NE 3.5 mph - N/A   Clear
2:15 AM 87.8 °F 86.1 °F 55.4 °F 33% 29.81 in 10.0 mi Calm Calm - N/A   Clear
2:35 AM 87.8 °F 86.1 °F 55.4 °F 33% 29.82 in 10.0 mi Calm Calm - N/A   Clear
2:55 AM 87.8 °F 86.1 °F 55.4 °F 33% 29.82 in 10.0 mi Calm Calm - N/A   Clear
3:15 AM 84.2 °F 83.0 °F 55.4 °F 37% 29.82 in 10.0 mi SW 3.5 mph - N/A   Clear
3:35 AM 84.2 °F 83.0 °F 55.4 °F 37% 29.82 in 10.0 mi Calm Calm - N/A   Clear
3:55 AM 82.4 °F 81.7 °F 55.4 °F 39% 29.81 in 10.0 mi Calm Calm - N/A   Clear
4:15 AM 82.4 °F 81.7 °F 55.4 °F 39% 29.82 in 10.0 mi Calm Calm - N/A   Clear
4:35 AM 82.4 °F 81.7 °F 55.4 °F 39% 29.82 in 10.0 mi Calm Calm - N/A   Clear
4:55 AM 82.4 °F 81.7 °F 55.4 °F 39% 29.82 in 10.0 mi East 4.6 mph - N/A   Clear
5:15 AM 84.2 °F 83.5 °F 57.2 °F 40% 29.82 in 10.0 mi Calm Calm - N/A   Clear
5:35 AM 80.6 °F 80.5 °F 55.4 °F 42% 29.82 in 10.0 mi NE 5.8 mph - N/A   Clear
5:55 AM 80.6 °F 80.8 °F 57.2 °F 45% 29.82 in 10.0 mi NE 5.8 mph - N/A   Clear
6:15 AM 82.4 °F 82.0 °F 57.2 °F 42% 29.82 in 10.0 mi East 5.8 mph - N/A   Clear
6:35 AM 82.4 °F 82.5 °F 59.0 °F 45% 29.83 in 10.0 mi East 6.9 mph - N/A   Clear
6:55 AM 82.4 °F 82.9 °F 60.8 °F 48% 29.83 in 10.0 mi East 5.8 mph - N/A   Clear
7:15 AM 82.4 °F 82.9 °F 60.8 °F 48% 29.83 in 10.0 mi East 6.9 mph - N/A   Clear
7:35 AM 84.2 °F 84.4 °F 60.8 °F 45% 29.84 in 10.0 mi East 8.1 mph - N/A   Clear
7:55 AM 86.0 °F 86.1 °F 60.8 °F 43% 29.84 in 10.0 mi ESE 6.9 mph - N/A   Clear
8:15 AM 87.8 °F 87.6 °F 60.8 °F 40% 29.85 in 10.0 mi ESE 4.6 mph - N/A   Clear
8:35 AM 89.6 °F 89.5 °F 60.8 °F 38% 29.85 in 10.0 mi ESE 5.8 mph - N/A   Clear
8:55 AM 91.4 °F 91.4 °F 60.8 °F 36% 29.85 in 10.0 mi ESE 6.9 mph - N/A   Clear
9:15 AM 93.2 °F 92.6 °F 59.0 °F 32% 29.85 in 10.0 mi ESE 8.1 mph - N/A   Clear
9:35 AM 96.8 °F 96.2 °F 59.0 °F 28% 29.85 in 10.0 mi SE 6.9 mph - N/A   Clear
9:55 AM 96.8 °F 95.8 °F 57.2 °F 27% 29.85 in 10.0 mi SE 5.8 mph - N/A   Clear
10:15 AM 98.6 °F 97.6 °F 57.2 °F 25% 29.85 in 10.0 mi SSE 8.1 mph - N/A   Clear
10:35 AM 100.4 °F 99.7 °F 57.2 °F 24% 29.84 in 10.0 mi SSE 4.6 mph - N/A   Clear
10:55 AM 100.4 °F 98.8 °F 55.4 °F 22% 29.84 in 10.0 mi Calm Calm - N/A   Clear
11:15 AM 102.2 °F 101.4 °F 57.2 °F 22% 29.83 in 10.0 mi SSE 4.6 mph - N/A   Clear
11:35 AM 104.0 °F 103.4 °F 57.2 °F 21% 29.83 in 10.0 mi Calm Calm - N/A   Clear
11:55 AM 102.2 °F 100.9 °F 55.4 °F 21% 29.82 in 10.0 mi Calm Calm - N/A   Clear
12:15 PM 105.8 °F 104.9 °F 55.4 °F 19% 29.82 in 10.0 mi ENE 5.8 mph - N/A   Clear
12:35 PM 105.8 °F 104.9 °F 55.4 °F 19% 29.81 in 10.0 mi North 3.5 mph - N/A   Clear
12:55 PM 105.8 °F 104.9 °F 55.4 °F 19% 29.80 in 10.0 mi East 4.6 mph - N/A   Clear
1:15 PM 105.8 °F 104.9 °F 55.4 °F 19% 29.79 in 10.0 mi Calm Calm - N/A   Clear
1:35 PM 107.6 °F 106.8 °F 55.4 °F 18% 29.78 in 10.0 mi Calm Calm - N/A   Clear
1:55 PM 107.6 °F 106.8 °F 55.4 °F 18% 29.77 in 10.0 mi SE 8.1 mph - N/A   Clear
2:15 PM 109.4 °F 107.9 °F 53.6 °F 16% 29.76 in 10.0 mi West 5.8 mph - N/A   Clear
2:35 PM 109.4 °F 107.9 °F 53.6 °F 16% 29.76 in 10.0 mi NE 5.8 mph - N/A   Clear
2:55 PM 111.2 °F 109.6 °F 53.6 °F 15% 29.74 in 10.0 mi South 9.2 mph - N/A   Clear
3:15 PM 111.2 °F - 51.8 °F 14% 29.74 in 10.0 mi WSW 5.8 mph - N/A   Clear
3:35 PM 111.2 °F 109.6 °F 53.6 °F 15% 29.73 in 10.0 mi South 5.8 mph - N/A   Clear
3:55 PM 109.4 °F - 51.8 °F 15% 29.72 in 10.0 mi West 5.8 mph - N/A   Clear
4:15 PM 111.2 °F - 51.8 °F 14% 29.72 in 10.0 mi WSW 10.4 mph 17.3 mph N/A   Clear
4:35 PM 111.2 °F - 51.8 °F 14% 29.72 in 10.0 mi WSW 4.6 mph - N/A   Clear
4:55 PM 109.4 °F - 50.0 °F 14% 29.71 in 10.0 mi Calm Calm - N/A   Clear
5:15 PM 109.4 °F - 48.2 °F 13% 29.71 in 10.0 mi West 8.1 mph - N/A   Clear
5:35 PM 109.4 °F - 48.2 °F 13% 29.71 in 10.0 mi Calm Calm - N/A   Clear
5:55 PM 109.4 °F - 48.2 °F 13% 29.71 in 10.0 mi NNE 4.6 mph - N/A   Clear
6:15 PM 109.4 °F - 48.2 °F 13% 29.71 in 10.0 mi North 8.1 mph - N/A   Clear
6:35 PM 109.4 °F - 48.2 °F 13% 29.72 in 10.0 mi NW 4.6 mph - N/A   Clear
6:55 PM 109.4 °F - 48.2 °F 13% 29.72 in 10.0 mi NW 5.8 mph - N/A   Clear
7:15 PM 107.6 °F - 46.4 °F 13% 29.72 in 10.0 mi NNW 4.6 mph - N/A   Clear
7:35 PM 105.8 °F - 46.4 °F 14% 29.73 in 10.0 mi North 4.6 mph - N/A   Clear
7:55 PM 104.0 °F - 46.4 °F 14% 29.73 in 10.0 mi NNW 5.8 mph - N/A   Clear
8:15 PM 102.2 °F - 46.4 °F 15% 29.74 in 10.0 mi North 3.5 mph - N/A   Clear
8:35 PM 100.4 °F - 46.4 °F 16% 29.75 in 10.0 mi NNW 4.6 mph - N/A   Clear
8:55 PM 102.2 °F - 46.4 °F 15% 29.76 in 10.0 mi WNW 5.8 mph - N/A   Clear
9:15 PM 100.4 °F - 44.6 °F 15% 29.76 in 10.0 mi WNW 5.8 mph - N/A   Clear
9:55 PM 100.4 °F - 48.2 °F 17% 29.77 in 10.0 mi NNW 6.9 mph - N/A   Clear
10:15 PM 98.6 °F - 48.2 °F 18% 29.78 in 10.0 mi SW 5.8 mph - N/A   Clear
10:35 PM 100.4 °F - 48.2 °F 17% 29.77 in 10.0 mi NNW 4.6 mph - N/A   Clear
10:55 PM 98.6 °F - 48.2 °F 18% 29.78 in 10.0 mi SSW 5.8 mph - N/A   Clear
11:15 PM 96.8 °F - 48.2 °F 19% 29.78 in 10.0 mi West 5.8 mph - N/A   Clear
11:35 PM 96.8 °F - 48.2 °F 19% 29.78 in 10.0 mi WNW 9.2 mph - N/A   Clear
11:55 PM 95.0 °F - 48.2 °F 20% 29.78 in 10.0 mi West 6.9 mph - N/A   Clear